Corpus Christi NAS, TX

3:32 PM CDT on April 24, 2017 (GMT -0500)
Corpus Christi Naval Air Station-Truax

Weather History for KNGP - November, 2013

Change the Weather History Date:

Sunday, November 10, 2013

  Actual Average Record
Temperature  
Mean Temperature 70 °F -  
Max Temperature 71 °F 73 °F 84 °F (2002)
Min Temperature 68 °F 59 °F 42 °F (2000)
Cooling Degree Days 4    
Growing Degree Days 20 (Base 50)    
Moisture  
Dew Point 58 °F    
Average Humidity 68    
Maximum Humidity 84    
Minimum Humidity 55    
Precipitation  
Precipitation 0.00 in - - ()
Sea Level Pressure  
Sea Level Pressure 30.20 in    
Wind  
Wind Speed 12 mph (NE)    
Max Wind Speed 22 mph    
Max Gust Speed -    
Visibility 10 miles    
Events      
Averages and records for this station are not official NWS values.
T = Trace of Precipitation, MM = Missing Value Source: NWS Daily Summary

Daily Weather History Graph

Daily Weather History Graph

Search for Another Location

Airport or City:

Trip Planner

Search our weather history database for the weather conditions in past years. The results will help you decide how hot, cold, wet, or windy it might be!

Date:

Astronomy

Nov. 10, 2013 Rise Set
Actual Time 6:46 AM CST 5:39 PM CST
Civil Twilight 6:22 AM CST 6:03 PM CST
Nautical Twilight 5:54 AM CST 6:31 PM CST
Astronomical Twilight 5:26 AM CST 6:59 PM CST
Moon 1:12 PM CST (11/10) 12:03 AM CST (11/10)
Length of Visible Light 11h 41m
Length of Day
10h 52m
First Quarter, 56% of the Moon is Illuminated
Nov 10
First Quarter
Nov 17
Full
Nov 25
Last Quarter
Dec 2
New
Dec 9
First Quarter

Hourly Weather History & Observations

Time (CST) Temp. Dew Point Humidity Pressure Visibility Wind Dir Wind Speed Gust Speed Precip Events Conditions
12:56 AM - - N/A% 30.14 in 10.0 mi NE 9.2 mph - N/A   Clear
2:56 AM - - N/A% 30.14 in 10.0 mi North 6.9 mph - N/A   Clear
3:56 AM - - N/A% 30.14 in 10.0 mi NNE 10.4 mph - N/A   Partly Cloudy
4:56 AM - - N/A% 30.14 in 10.0 mi NE 11.5 mph - N/A   Partly Cloudy
5:56 AM - - N/A% 30.17 in 10.0 mi NE 11.5 mph - N/A   Overcast
6:42 AM - - N/A% 30.18 in 10.0 mi ENE 13.8 mph - N/A   Overcast
6:56 AM - - N/A% 30.19 in 10.0 mi North - - N/A   Overcast
7:56 AM - - N/A% 30.21 in 10.0 mi ENE 21.9 mph - N/A   Overcast
8:56 AM - - N/A% 30.24 in 10.0 mi North - - N/A   Overcast
9:56 AM - - N/A% 30.27 in 8.0 mi NE 13.8 mph - 0.00 in   Overcast
10:56 AM 68.0 °F 61.0 °F 78% 30.25 in 10.0 mi NNE 13.8 mph - N/A   Overcast
11:56 AM 68.0 °F 63.0 °F 84% 30.24 in 10.0 mi North - - N/A   Overcast
12:56 PM 68.0 °F 63.0 °F 84% 30.21 in 10.0 mi NE 18.4 mph - N/A   Overcast
2:56 PM 71.1 °F 54.0 °F 55% 30.19 in 10.0 mi NE 13.8 mph - N/A   Mostly Cloudy
3:56 PM 71.1 °F 55.9 °F 59% 30.19 in 10.0 mi NE 12.7 mph - N/A   Overcast
4:56 PM 69.1 °F 57.0 °F 65% 30.19 in 10.0 mi NE 16.1 mph - N/A   Overcast
5:56 PM 68.0 °F 54.0 °F 61% 30.19 in 10.0 mi NE 15.0 mph - N/A   Mostly Cloudy
6:56 PM 68.0 °F 55.0 °F 63% 30.20 in 10.0 mi NE 13.8 mph - N/A   Overcast
7:56 PM 68.0 °F 55.9 °F 65% 30.21 in 10.0 mi ENE 18.4 mph - N/A   Overcast
8:56 PM 68.0 °F 55.9 °F 65% 30.22 in 10.0 mi NE 12.7 mph - N/A   Overcast
9:56 PM 68.0 °F 57.0 °F 68% 30.23 in 10.0 mi NE 11.5 mph - N/A   Overcast
10:56 PM 68.0 °F 59.0 °F 73% 30.22 in 10.0 mi NNE 11.5 mph - N/A   Overcast